Regional Weather Roundup
Issued by NWS

Home | Current Version | Previous Version | Graphics & Text | Print | Product List | Glossary Off
Versions: 1 2 3 4 5 6 7 8 9 10 11 12 13 14 15 16 17 18 19 20 21 22 23 24 25 26 27 28 29 30 31 32 33 34 35 36 37 38 39 40 41 42 43 44 45 46 47 48 49 50

000
ASUS43 KTOP 180608
RWRKS

WEATHER ROUNDUP FOR KANSAS
NATIONAL WEATHER SERVICE GOODLAND KS
100 AM CDT SAT APR 18 2015

NOTE:  "FAIR" INDICATES FEW OR NO CLOUDS BELOW 12,000 FEET WITH NO
SIGNIFICANT WEATHER AND/OR OBSTRUCTIONS TO VISIBILITY.

KSZ001>006-013>018-027>032-041>047-180700-
NORTHWEST KANSAS

CITY           SKY/WX    TMP DP  RH WIND       PRES   REMARKS
GOODLAND       MOCLDY    47  46  97 E6        29.97R
6HR MIN TEMP:  46; 6HR MAX TEMP:  57; 6HR PCP:  0.41;

HAYS           CLOUDY    59  50  72 S5        29.93F
HILL CITY      LGT RAIN  55  53  93 W5        29.97R FOG
6HR MIN TEMP:  55; 6HR MAX TEMP:  69; 6HR PCP:  0.56;

RUSSELL        FAIR      59  56  89 S5        29.92F
6HR MIN TEMP:  59; 6HR MAX TEMP:  70; 6HR PCP: TRACE;

$$

KSZ061>065-074>080-084>089-180700-
SOUTHWEST KANSAS

CITY           SKY/WX    TMP DP  RH WIND       PRES   REMARKS
DODGE CITY     CLOUDY    58  55  90 SW5       29.95S
6HR MIN TEMP:  57; 6HR MAX TEMP:  65; 6HR PCP:  0.14;

ELKHART          N/A    N/A N/A N/A MISG        N/A
GARDEN CITY    FAIR      49  45  86 NE5       29.92F
6HR MIN TEMP:  49; 6HR MAX TEMP:  67; 6HR PCP:  0.12;

GREAT BEND     CLOUDY    59  54  82 SE8       29.93S
LIBERAL        FAIR      54  48  82 S5        29.95F
PRATT          FAIR      59  54  82 SE5       29.96S
$$

KSZ066>073-081>083-090>101-180700-
SOUTHEAST KANSAS

CITY           SKY/WX    TMP DP  RH WIND       PRES   REMARKS
CHANUTE        FAIR      62  60  93 E3        29.96S
6HR MIN TEMP:  62; 6HR MAX TEMP:  72;

COFFEYVILLE    FAIR      63  61  93 CALM      29.96R
6HR MIN TEMP:  63; 6HR MAX TEMP:  73;

HUTCHINSON     FAIR      60  56  86 E6        29.95S
6HR MIN TEMP:  60; 6HR MAX TEMP:  72;

MEDICINE LODGE   N/A     62  57  83 SE5       29.95R
NEWTON         FAIR      61  54  77 SE5       29.98S
PARSONS        FAIR      63  62  97 CALM      29.97R
6HR MIN TEMP:  63; 6HR MAX TEMP:  74;

WICHITA INTL   CLOUDY    64  58  80 E5        29.95S
6HR MIN TEMP:  62; 6HR MAX TEMP:  70;

WICHITA JABRA  CLOUDY    60  57  89 CALM      29.96S
6HR MIN TEMP:  60; 6HR MAX TEMP:  69;

WICHITA MCCONL MOCLDY    64  58  80 E6        29.96S
WINFIELD       CLOUDY    64  59  83 MISG      29.96S
6HR MIN TEMP:  61; 6HR MAX TEMP:  68;

$$

KSZ007>012-019>026-033>040-048>060-102>105-180700-
NORTHEAST KANSAS

CITY           SKY/WX    TMP DP  RH WIND       PRES   REMARKS
CONCORDIA      FAIR      60  57  89 E3        29.95S
6HR MIN TEMP:  59; 6HR MAX TEMP:  71;

EMPORIA        FAIR      60  58  92 S5        29.96S
6HR MIN TEMP:  60; 6HR MAX TEMP:  70;

LAWRENCE       FAIR      59  57  93 SE3       29.97R
6HR MIN TEMP:  58; 6HR MAX TEMP:  72;

MANHATTAN      FAIR      63  57  81 NE3       29.95S
6HR MIN TEMP:  62; 6HR MAX TEMP:  73;

MARYSVILLE     FAIR      61  57  88 E7        29.96S
OLATHE IND     FAIR      64  58  80 E6        29.97S
6HR MIN TEMP:  62; 6HR MAX TEMP:  73;

OLATHE EXE     FAIR      65  59  81 NE3       29.96F
6HR MIN TEMP:  63; 6HR MAX TEMP:  72;

SALINA         FAIR      62  57  83 SE6       29.95S
6HR MIN TEMP:  60; 6HR MAX TEMP:  73;

TOPEKA BILLARD FAIR      58  56  93 CALM      29.96S
6HR MIN TEMP:  58; 6HR MAX TEMP:  72;

TOPEKA FORBES  FAIR      61  56  83 CALM      29.96S
6HR MIN TEMP:  60; 6HR MAX TEMP:  73;

$$


USA.gov is the U.S. government's official web portal to all federal, state and local government web resources and services.